Home   Weather   Utrecht   Past weeks

Flag for Netherlands Past Weather in Utrecht, Netherlands — Yesterday and Last 2 Weeks

Now
61 °F

Clear.


Feels Like: 61 °F
Forecast: 61 / 70 °F
Wind: 8 mph from South

Location: Amsterdam Schiphol Airport

Current Time: Sep 27, 2016 at 9:02:53 PM

Latest Report: Sep 27, 2016 at 8:25 PM


Visibility: 10 mi

Pressure: 30.24 "Hg

Humidity: 68%

Dew Point: 50 °F

Location of UtrechtLocation

Past Weather in Utrecht — Graph

°F

Utrecht Temperature Yesterday

Maximum temperature yesterday: 66 °F (at 3:25 PM)
Minimum temperature yesterday: 52 °F (at 2:25 AM)
Average temperature yesterday: 58 °F

High & Low Weather Summary for the Past Weeks

 TemperatureHumidityPressure
High88 °F (Sep 14, 3:25 PM)100% (Sep 16, 4:25 AM)30.27 "Hg (Sep 16, 4:25 AM)
Low46 °F (Sep 27, 6:55 AM)40% (Sep 14, 5:25 PM)29.77 "Hg (Sep 15, 4:55 PM)
Average64 °F76%30.05 "Hg
* Reported Sep 12 7:25 PM — Sep 27 7:55 PM, Utrecht, Weather by CustomWeather, © 2016

Note: Actual official high and low records may vary slightly from our data, if they occured in-between our weather recording intervals... More about our weather records

Advertising

Utrecht Weather History for the Previous 24 Hours

Scroll right to see more
 ConditionsComfort  
Time TempWeatherWind HumidityBarometerVisibility
7:55 PM
Tue, Sep 27
61 °FClear.7 mph68%30.24 "Hg10 mi
7:25 PM63 °FSunny.9 mph59%30.24 "Hg10 mi
6:55 PM64 °FSunny.9 mph56%30.24 "Hg10 mi
6:25 PM64 °FSunny.10 mph56%30.24 "Hg10 mi
5:55 PM64 °FSunny.12 mph56%30.24 "Hg10 mi
5:25 PM68 °FSunny.13 mph49%30.24 "Hg10 mi
4:55 PM68 °FPassing clouds.13 mph49%30.24 "HgN/A
4:25 PM70 °FPassing clouds.13 mph50%30.24 "HgN/A
3:55 PM68 °FPassing clouds.13 mph49%30.24 "HgN/A
3:25 PM70 °FPassing clouds.13 mph43%30.24 "HgN/A
2:55 PM68 °FPassing clouds.12 mph49%30.27 "HgN/A
2:25 PM68 °FPassing clouds.12 mph46%30.27 "HgN/A
1:55 PM68 °FPassing clouds.12 mph49%30.27 "HgN/A
1:25 PM66 °FSunny.13 mph52%30.27 "Hg10 mi
12:55 PM66 °FSunny.13 mph52%30.27 "Hg10 mi
12:25 PM64 °FPassing clouds.12 mph60%30.27 "HgN/A
11:55 AM64 °FPassing clouds.9 mph68%30.27 "HgN/A
11:25 AM63 °FPassing clouds.9 mph68%30.27 "HgN/A
10:55 AM63 °FPassing clouds.8 mph68%30.27 "HgN/A
10:25 AM61 °FPassing clouds.6 mph72%30.27 "HgN/A
9:55 AM57 °FPassing clouds.5 mph82%30.27 "HgN/A
9:25 AM55 °FPassing clouds.3 mph88%30.27 "HgN/A
8:55 AM50 °FPassing clouds.3 mph100%30.27 "HgN/A
8:25 AM48 °FPassing clouds.5 mph100%30.27 "HgN/A
7:55 AM46 °FLight fog.5 mph100%30.27 "HgN/A
7:25 AM48 °FLight fog.3 mph100%30.27 "HgN/A
6:55 AM46 °FFog.2 mph100%30.27 "HgN/A
6:25 AM48 °FFog.3 mph100%30.27 "HgN/A
5:55 AM48 °FFog.2 mph100%30.27 "HgN/A
5:25 AM48 °FFog.1 mph100%30.27 "HgN/A
4:55 AM48 °FFog.2 mph100%30.24 "HgN/A
4:25 AM48 °FFog.1 mph94%30.27 "HgN/A
3:55 AM50 °FFog.2 mph94%30.24 "HgN/A
3:25 AM50 °FFog.2 mph94%30.24 "HgN/A
2:55 AM50 °FFog.2 mph94%30.24 "HgN/A
2:25 AM50 °FFog.1 mph94%30.24 "HgN/A
1:55 AM50 °FFog.2 mph94%30.24 "HgN/A
1:25 AM52 °FClear.2 mph94%30.24 "Hg10 mi
12:55 AM52 °FClear.2 mph94%30.24 "Hg10 mi
12:25 AM54 °FClear.5 mph94%30.24 "Hg10 mi
11:55 PM
Mon, Sep 26
54 °FPassing clouds.2 mph94%30.24 "HgN/A
11:25 PM54 °FPassing clouds.2 mph94%30.24 "HgN/A
10:55 PM55 °FClear.2 mph88%30.24 "Hg10 mi
10:25 PM55 °FClear.1 mph88%30.24 "Hg10 mi
9:55 PM55 °FClear.1 mph88%30.24 "Hg10 mi
9:25 PM57 °FClear.2 mph82%30.24 "Hg10 mi
Weather by CustomWeather, © 2016

See weather overviewHow to use our weather pages